GFSNIL_850_spd_066.txt.gz
Wind_Speed
13 13 14 15 16 17 17 18 19 19 20 19 19 18 18 19 18 19 20 20 19 19
11 11 11 12 13 13 13 14 15 16 16 17 16 16 16 16 17 18 19 18 18 19
9 10 10 10 11 12 12 13 14 15 15 16 16 15 15 14 15 16 16 16 17 18
10 10 11 11 12 13 13 14 14 13 13 14 14 14 13 13 13 14 13 14 13 12
12 12 12 12 12 12 12 12 11 11 12 12 12 12 11 11 11 10 10 9 8 5
13 13 12 12 12 11 11 9 8 8 9 8 7 7 7 6 6 4 2 2 3 4
12 12 12 12 11 10 9 7 7 7 6 4 3 0 1 2 2 4 2 1 1 1
12 12 11 10 9 9 7 6 4 2 0 3 5 7 8 8 8 7 5 3 2 1
13 12 10 7 6 5 6 5 4 4 5 8 10 10 9 9 7 7 5 4 4 5
11 9 8 6 6 7 7 7 7 8 9 9 9 9 8 7 7 6 7 7 7 7
9 7 7 8 9 9 8 10 10 8 8 7 7 7 6 6 7 7 7 7 7 8
9 8 8 11 10 11 11 10 8 6 6 5 6 6 6 7 8 8 8 9 9 10
9 10 12 12 13 13 11 9 7 5 5 4 4 5 6 7 8 9 9 10 11 12
12 13 13 14 13 11 9 8 5 3 2 2 3 4 7 8 8 9 10 10 11 11

GFSNIL_850_spd_072.txt.gz
Wind_Speed
18 18 18 18 19 19 20 21 21 21 21 21 21 21 20 20 20 19 16 15 17 18
15 16 17 17 17 18 18 18 17 17 16 16 16 16 16 17 18 17 15 14 16 17
14 14 14 15 15 15 15 15 15 15 15 15 15 15 15 16 16 16 16 16 15 18
13 13 14 15 15 15 15 15 16 15 15 15 14 14 14 14 14 14 15 15 15 16
14 14 15 16 16 16 16 15 15 15 14 14 13 13 12 12 12 11 11 10 11 11
14 15 16 17 17 17 16 15 15 14 13 13 12 11 10 9 9 9 9 8 8 8
15 15 16 16 16 16 16 15 15 14 12 11 10 8 7 6 6 4 3 3 3 3
15 16 16 15 15 15 14 13 14 11 9 7 5 5 5 5 6 6 5 4 3 3
16 16 17 16 14 13 12 11 10 8 6 6 6 7 8 8 7 6 5 4 3 2
16 17 17 15 12 11 10 10 9 8 9 9 9 9 8 7 6 5 3 2 2 2
16 17 15 13 12 12 12 12 10 11 11 10 9 8 6 5 4 3 2 1 1 2
16 16 15 14 14 14 13 14 13 13 11 9 7 7 6 4 3 2 1 1 2 4
16 16 15 15 15 15 15 15 15 13 11 10 8 6 5 4 2 1 1 3 4 5
15 15 15 16 17 17 18 17 15 14 12 10 9 7 4 2 2 2 3 4 5 6

GFSNIL_850_spd_078.txt.gz
Wind_Speed
16 16 16 15 16 18 18 20 20 19 19 20 20 20 20 19 18 19 19 18 17 19
19 17 14 17 18 18 18 18 18 18 18 18 18 18 18 17 17 17 19 15 14 13
16 14 16 17 16 16 17 17 17 17 17 17 17 17 17 17 17 16 18 16 14 14
16 14 14 14 15 15 17 18 19 19 18 18 17 17 17 17 16 16 17 15 14 14
14 14 14 14 15 17 17 19 19 19 19 18 17 17 16 16 15 14 15 14 15 15
15 14 14 14 15 16 16 17 18 18 18 17 16 15 14 14 15 14 13 12 12 11
12 12 14 15 15 15 16 17 19 19 18 16 15 15 14 14 14 12 11 10 10 9
12 13 14 15 16 16 16 17 17 18 17 15 14 13 11 10 11 9 7 6 6 6
14 15 15 16 16 16 16 17 16 16 15 13 12 10 9 10 9 6 7 7 6 5
15 16 17 17 17 16 16 16 14 13 12 10 7 8 8 7 7 7 7 6 5 4
16 17 18 17 17 17 17 13 10 12 11 8 7 8 9 8 8 8 7 6 5 4
18 18 19 18 17 16 15 12 12 12 10 9 9 9 8 8 8 7 6 5 4 4
18 19 19 17 16 15 12 12 13 13 11 11 10 10 9 8 8 7 6 6 5 4
18 18 18 17 15 13 13 14 14 13 13 13 11 10 9 8 7 7 6 6 5 4

GFSNIL_850_spd_081.txt.gz
Wind_Speed
22 20 19 18 17 17 17 18 19 19 19 19 20 20 20 19 19 19 19 20 18 17
21 21 19 17 16 15 16 17 17 18 19 19 18 18 18 18 18 18 18 20 18 15
22 19 18 17 15 13 14 17 18 17 17 19 19 18 18 18 18 17 18 20 18 15
21 19 18 15 12 14 17 19 18 18 19 18 18 18 18 18 18 17 18 19 16 15
20 18 16 19 27 20 19 18 17 18 18 18 18 18 18 18 17 16 17 17 16 16
20 19 16 14 14 15 15 16 17 17 18 17 17 17 18 17 17 15 15 15 14 12
18 16 14 13 13 13 14 15 17 17 16 17 17 17 17 17 15 15 14 13 12 11
17 15 14 14 13 13 14 15 15 16 16 16 16 16 15 15 13 12 13 10 9 9
17 15 14 14 13 14 14 14 16 16 16 16 13 13 13 13 10 9 8 6 6 6
19 17 16 15 14 14 14 15 16 17 15 13 10 10 11 9 8 7 8 7 7 7
19 17 16 15 14 15 15 16 16 14 12 11 7 8 9 10 9 9 8 8 7 6
18 17 16 15 15 16 16 15 15 12 11 10 8 9 9 9 9 9 8 7 7 6
18 17 16 16 16 16 16 14 12 12 12 11 10 10 10 10 10 9 8 8 8 7
18 17 17 17 16 16 15 13 12 13 13 13 12 11 11 10 10 9 8 8 7 7

GFSNIL_850_spd_084.txt.gz
Wind_Speed
29 30 28 25 25 23 21 20 18 18 19 19 19 20 20 21 21 21 21 21 21 20
28 27 26 25 23 21 19 16 17 18 20 20 20 21 20 20 21 20 20 20 21 21
23 22 23 19 19 19 17 17 17 19 19 20 21 21 21 20 21 20 20 20 21 22
22 21 22 23 20 19 17 14 23 26 22 21 21 21 21 21 21 20 20 20 21 22
21 22 24 20 20 20 20 24 25 21 21 21 21 21 21 21 20 20 19 19 21 20
21 22 20 19 17 17 16 16 17 19 19 20 20 20 21 20 19 19 18 17 18 18
20 19 18 17 15 14 14 15 16 17 18 19 19 20 21 20 18 18 17 16 16 16
18 18 18 16 15 14 14 15 16 17 18 19 19 19 20 19 18 15 14 16 14 11
19 18 16 16 15 14 15 15 16 17 18 19 20 19 17 15 13 11 11 11 9 9
18 18 17 17 16 15 15 16 17 17 19 18 17 15 13 12 11 11 10 9 7 6
21 20 19 18 16 16 16 17 17 17 17 15 14 12 10 10 11 11 10 9 9 7
22 20 19 18 17 17 17 17 17 16 15 13 13 10 11 11 12 11 10 9 8 7
20 20 20 17 17 18 18 17 17 16 13 13 12 11 12 12 11 10 10 9 8 7
19 19 18 18 18 17 17 18 18 14 14 14 13 13 13 12 11 10 9 9 8 7

GFSNIL_850_spd_087.txt.gz
Wind_Speed
24 25 21 24 22 21 23 26 24 20 19 17 18 19 20 20 20 21 20 20 21 20
23 24 24 24 22 22 22 20 18 18 16 15 18 21 22 20 20 21 21 21 21 21
22 22 21 21 21 19 17 16 15 12 12 24 31 29 26 24 23 24 22 21 21 22
18 19 20 20 19 18 15 15 21 25 24 33 31 25 25 24 23 23 22 21 21 22
17 17 18 20 22 20 20 22 22 20 28 24 23 23 23 22 21 21 21 20 20 21
18 18 18 19 20 18 18 16 20 20 18 19 20 21 22 22 21 20 19 18 18 19
17 18 18 18 18 17 17 17 16 14 16 18 19 21 22 22 21 20 19 18 18 18
16 18 18 18 17 16 15 13 13 14 15 18 19 21 22 22 21 19 17 16 16 17
17 17 17 17 16 14 13 13 13 14 16 18 19 22 24 22 17 14 13 13 13 11
16 17 17 16 16 14 14 14 14 15 16 18 19 22 20 16 12 11 11 11 10 8
17 18 18 18 16 15 15 14 15 16 17 18 19 19 17 12 10 11 11 11 11 10
19 19 19 19 17 16 16 15 16 17 18 18 17 14 15 10 11 12 12 12 11 10
18 19 19 18 18 17 17 17 19 18 18 16 13 13 13 12 13 13 11 11 11 10
18 18 18 18 19 18 18 18 18 18 17 15 12 14 14 13 14 12 13 12 11 11

GFSNIL_850_spd_090.txt.gz
Wind_Speed
19 20 20 20 20 21 20 17 14 17 17 17 13 10 11 17 19 19 20 18 17 18
16 17 18 18 19 17 17 17 18 23 17 12 7 9 23 22 19 19 19 18 17 18
17 17 15 15 16 19 20 20 19 16 13 11 16 28 31 29 28 24 20 19 18 18
15 15 14 14 14 17 17 17 17 16 16 18 19 31 28 28 23 20 20 19 18 18
14 13 12 12 13 14 16 17 17 16 17 13 22 22 20 19 20 20 19 18 18 18
14 13 13 13 14 16 16 16 16 14 14 19 18 18 18 19 19 19 18 17 17 16
14 13 13 15 16 16 16 16 15 16 16 14 15 17 18 19 19 18 18 17 16 16
14 15 15 16 16 16 16 16 14 13 13 13 14 15 17 19 20 19 18 16 13 13
14 15 15 16 16 17 16 14 13 13 12 12 13 16 19 21 20 18 14 12 11 12
16 16 16 15 16 16 15 14 13 12 11 12 14 17 19 22 20 13 10 10 10 10
17 16 17 17 17 17 16 14 13 13 13 13 15 17 18 18 14 9 9 9 9 10
18 18 18 19 18 17 16 15 14 14 14 14 15 15 14 13 11 9 9 10 10 10
21 19 19 18 17 18 17 16 16 16 15 15 14 14 12 11 11 10 11 11 10 10
23 19 17 16 18 18 18 17 17 17 16 16 14 12 10 11 11 11 12 11 12 11

GFSNIL_850_spd_096.txt.gz
Wind_Speed
16 21 22 21 22 26 23 23 23 26 25 20 21 20 22 21 19 15 14 15 15 16
14 16 18 19 19 18 18 18 22 22 23 23 23 22 23 22 19 15 14 15 15 17
12 12 13 14 14 14 16 18 22 23 24 24 25 25 25 24 17 16 15 16 16 16
12 12 12 13 12 12 14 18 22 23 24 25 25 25 25 21 18 17 16 16 15 17
11 11 12 11 11 12 14 17 21 24 25 26 26 25 23 19 17 16 15 14 15 17
12 12 13 13 13 13 14 16 20 23 25 25 24 22 19 17 16 15 13 15 17 18
12 12 13 14 14 14 15 16 19 22 23 23 23 21 19 18 16 13 14 17 17 18
13 15 15 15 15 15 17 18 20 22 22 23 22 21 19 17 14 13 15 16 18 18
15 14 15 16 17 18 19 20 21 22 22 22 20 19 17 15 14 14 15 15 17 17
17 18 17 16 17 19 20 21 22 23 22 22 20 19 17 15 14 14 15 15 15 15
18 20 20 20 20 21 22 23 24 24 24 22 20 18 17 15 14 13 13 11 12 12
17 20 23 23 23 23 23 24 23 22 22 20 19 18 16 14 13 12 12 11 11 12
18 19 23 24 25 23 23 24 24 23 22 21 20 19 18 16 15 13 13 12 12 14
19 19 21 25 26 24 25 25 25 25 24 23 22 20 20 19 16 15 14 13 13 14

GFSNIL_850_spd_099.txt.gz
Wind_Speed
27 25 26 29 25 24 26 22 30 30 28 23 22 20 19 24 23 21 19 18 17 15
13 17 20 22 23 25 21 21 21 24 29 32 31 26 26 27 24 22 20 19 19 18
14 13 16 17 19 19 19 18 19 20 28 28 27 26 27 27 25 24 22 21 20 20
11 13 14 15 16 16 18 17 20 20 21 26 29 30 29 27 26 26 23 23 21 19
8 10 11 13 14 15 16 18 19 20 25 29 32 30 29 28 28 27 24 21 20 20
8 9 10 12 13 14 16 17 18 20 26 29 28 29 29 28 28 25 23 21 20 20
11 10 11 12 13 14 15 16 18 20 25 27 29 29 28 28 26 24 22 21 20 18
13 13 12 13 14 15 16 17 17 20 24 26 26 26 26 26 24 22 21 19 18 18
13 15 16 16 16 16 17 17 19 20 22 24 25 26 25 24 22 21 20 19 18 19
19 17 17 18 19 20 20 21 22 23 24 25 26 24 23 22 22 21 19 18 17 17
22 21 20 20 22 22 23 24 25 25 26 26 26 24 23 23 22 20 18 17 16 15
21 21 21 23 23 25 26 26 26 27 28 28 27 24 24 23 21 20 18 17 16 14
22 22 21 22 25 26 28 28 27 28 29 29 28 26 26 24 23 21 19 18 16 14
22 23 23 22 23 26 29 29 29 30 30 30 29 29 27 26 25 22 22 20 17 15

GFSNIL_850_spd_102.txt.gz
Wind_Speed
26 24 24 27 24 20 23 28 26 25 28 24 19 17 21 24 24 26 24 25 25 25
11 15 17 14 21 29 33 23 21 21 24 29 30 25 26 25 23 24 21 20 21 20
8 7 8 14 16 16 17 21 24 25 25 25 30 35 32 30 28 27 27 23 20 21
8 8 10 11 12 15 17 20 21 21 20 19 19 26 29 31 28 28 25 25 23 22
4 6 8 10 13 15 15 17 17 19 19 19 19 27 32 31 31 28 28 26 25 24
5 7 8 11 12 14 16 16 17 18 20 20 22 26 30 32 32 30 30 27 26 24
7 8 10 12 13 13 15 17 17 18 19 20 25 27 31 32 30 29 29 28 26 24
13 12 12 12 13 14 16 17 19 19 20 20 24 26 27 28 29 29 28 28 26 25
12 13 14 15 16 15 15 17 19 20 21 21 24 27 28 28 29 29 29 28 26 25
16 16 15 15 16 18 17 18 20 21 21 22 24 25 25 26 28 28 28 27 26 24
18 19 19 18 17 15 17 20 22 22 23 24 24 24 26 27 29 29 28 27 26 24
23 22 20 20 20 20 18 20 23 24 25 26 26 26 27 28 30 30 28 27 26 25
25 25 24 22 21 20 21 21 21 25 26 26 27 28 27 29 30 31 30 29 27 25
20 22 23 24 23 22 22 21 23 24 26 28 30 30 29 30 31 32 30 30 28 25